G0UBK Weather Reports


time (UTC)temp
C
wind
direction
speed
KPH
gust
KPH
rain 1hr
cm
rain 24hr
cm
rain mn
cm
humidity
%
barometer
mb
20260502151604 16 79 3.2 8.0 0.00 0.00 0.00 68 1014.4
20260502123050 15 99 0.0 8.0 0.00 0.00 0.00 72 1015.2
20260502121551 16 123 1.6 3.2 0.00 0.00 0.00 70 1015.3
20260502114553 16 86 1.6 6.4 0.00 0.00 0.00 71 1015.1
20260502113049 15 107 0.0 8.0 0.00 0.00 0.00 74 1015.2
20260502111553 15 122 1.6 4.8 0.00 0.00 0.00 76 1015.4
20260502110046 13 140 1.6 9.7 0.00 0.00 0.00 77 1015.3
20260502104554 13 353 3.2 9.7 0.00 0.00 0.00 75 1015.2
20260502103047 15 24 1.6 11.3 0.00 0.00 0.00 71 1015.2
20260502101551 16 94 1.6 9.7 0.00 0.00 0.00 72 1015.4
20260502080104 14 283 6.4 14.5 0.00 0.00 0.00 75 1015.7
20260502070055 13 149 4.8 11.3 0.00 0.00 0.00 75 1015.5
20260502064558 12 224 1.6 8.0 0.00 0.00 0.00 78 1015.6
20260502063052 12 245 3.2 11.3 0.00 0.00 0.00 79 1015.6
20260502061547 11 238 3.2 9.7 0.00 0.00 0.00 83 1015.7
20260502060050 11 278 3.2 11.3 0.00 0.00 0.00 83 1015.8
20260502054558 10 281 4.8 11.3 0.00 0.00 0.00 83 1015.6
20260502053048 10 274 4.8 14.5 0.00 0.00 0.00 84 1015.6
20260502051552 10 246 1.6 8.0 0.00 0.00 0.00 85 1015.7
20260502050051 10 207 1.6 9.7 0.00 0.00 0.00 85 1015.6
20260502044557 10 275 4.8 8.0 0.00 0.00 0.00 86 1015.7
20260502043053 10 295 1.6 6.4 0.00 0.00 0.00 88 1015.7
20260502041549 10 0 0.0 1.6 0.00 0.00 0.00 88 1015.8
20260502040057 10 0 0.0 0.0 0.00 0.00 0.00 87 1015.8
20260502034556 10 0 0.0 1.6 0.00 0.00 0.00 87 1015.9
20260502033054 10 0 0.0 0.0 0.00 0.00 0.00 86 1016.0
20260502031555 11 0 0.0 0.0 0.00 0.00 0.00 86 1015.9
20260502030053 11 0 0.0 1.6 0.00 0.00 0.00 86 1016.0
20260502024552 11 0 0.0 1.6 0.00 0.00 0.00 86 1016.0
20260502023054 11 0 0.0 1.6 0.00 0.00 0.00 85 1016.2
20260502021553 11 239 0.0 3.2 0.00 0.00 0.00 86 1016.5
20260502020106 11 0 0.0 0.0 0.00 0.00 0.00 86 1016.5
20260502014553 11 0 0.0 0.0 0.00 0.00 0.00 85 1016.6
20260502013047 11 0 0.0 1.6 0.00 0.00 0.00 85 1016.8
20260502011552 11 0 0.0 1.6 0.00 0.00 0.00 84 1016.8
20260502010055 11 0 0.0 1.6 0.00 0.00 0.00 84 1017.0
20260502004555 11 0 0.0 3.2 0.00 0.00 0.00 84 1017.0
20260502003059 11 0 0.0 0.0 0.00 0.00 0.00 83 1017.2
20260502001624 11 0 0.0 0.0 0.00 0.00 0.00 83 1017.3
20260502000048 11 0 0.0 1.6 0.00 0.00 0.00 82 1017.2
20260501234545 11 302 0.0 1.6 0.00 0.00 0.00 82 1017.2
20260501233054 11 0 0.0 1.6 0.00 0.00 0.00 82 1017.5
20260501231554 11 0 0.0 1.6 0.00 0.00 0.00 81 1017.6
20260501224559 11 285 1.6 6.4 0.00 0.00 0.00 80 1017.6
20260501223054 11 302 3.2 11.3 0.00 0.00 0.00 79 1017.5
20260501221551 11 286 1.6 4.8 0.00 0.00 0.00 79 1017.5
20260501220058 12 0 0.0 3.2 0.00 0.00 0.00 77 1017.5
20260501214556 13 0 0.0 3.2 0.00 0.00 0.00 75 1017.6
20260501213057 14 300 0.0 1.6 0.00 0.00 0.00 74 1017.5
20260501211551 15 325 3.2 9.7 0.00 0.00 0.00 72 1017.3
20260501210059 15 288 3.2 9.7 0.00 0.00 0.00 72 1017.4
20260501204552 15 0 0.0 0.0 0.00 0.00 0.00 72 1017.2
20260501203047 15 0 0.0 3.2 0.00 0.00 0.00 72 1017.4
20260501201549 14 302 0.0 4.8 0.00 0.00 0.00 73 1017.3
20260501200048 17 301 0.0 1.6 0.00 0.00 0.00 65 1017.2
20260501194547 18 243 0.0 4.8 0.00 0.00 0.00 58 1016.9
20260501193053 18 115 0.0 6.4 0.00 0.00 0.00 57 1016.9
20260501191552 18 226 1.6 6.4 0.00 0.00 0.00 57 1016.8
20260501190048 18 212 1.6 8.0 0.00 0.00 0.00 58 1016.8
20260501184550 19 120 0.0 9.7 0.00 0.00 0.00 56 1016.8
20260501183054 19 154 1.6 4.8 0.00 0.00 0.00 57 1016.8
20260501181551 18 121 0.0 8.0 0.00 0.00 0.00 59 1017.1
20260501180055 19 167 4.8 9.7 0.00 0.00 0.00 58 1017.2
20260501174554 20 98 1.6 8.0 0.00 0.00 0.00 57 1017.2
20260501173046 20 129 3.2 9.7 0.00 0.00 0.00 55 1017.3
20260501171550 20 262 3.2 14.5 0.00 0.00 0.00 55 1017.3
20260501170054 20 180 4.8 12.9 0.00 0.00 0.00 55 1017.2
20260501164556 20 127 3.2 14.5 0.00 0.00 0.00 54 1017.3
20260501163052 20 141 6.4 17.7 0.00 0.00 0.00 52 1017.2
20260501161600 20 164 6.4 14.5 0.00 0.00 0.00 51 1017.3